Wind_Speed
20 19 18 17 17 17 16 15 13 13 14 12 11 10 9 7 5 4 3 3 4 5 6 6 6 7 7 7 7 7 7 7 7 7 6 6 6 6 5 4 3 2 2 2
22 21 20 20 20 19 19 17 15 16 17 15 15 14 12 11 9 8 6 5 5 5 6 7 6 5 5 5 6 5 5 5 6 6 5 5 5 5 4 4 3 3 2 2
23 22 22 22 22 22 21 20 19 19 19 18 16 15 14 12 11 10 9 9 8 8 8 8 8 7 6 5 6 5 5 5 5 6 5 4 5 5 4 3 3 4 3 3
24 24 24 24 23 22 22 21 22 22 20 19 18 16 16 14 13 12 11 11 10 10 9 9 9 8 7 7 6 6 6 6 5 5 5 5 5 5 4 4 3 3 4 4
25 25 25 25 25 24 24 24 24 23 22 21 20 19 18 17 15 13 13 12 12 12 11 10 10 10 9 9 8 8 7 6 6 6 5 5 5 5 5 5 4 4 5 5
26 26 27 26 26 26 26 25 25 25 24 25 23 22 20 19 17 15 15 15 14 14 12 11 11 11 11 11 11 9 9 8 8 7 6 6 6 6 6 6 6 6 6 6
27 28 28 28 28 28 27 26 25 25 25 25 25 25 23 22 20 18 17 16 16 15 14 14 14 14 13 13 13 12 11 11 10 9 8 8 7 7 7 7 7 8 9 9
26 28 29 28 28 28 28 28 27 26 25 25 26 27 25 22 22 21 20 19 19 18 18 17 17 17 16 15 14 14 13 13 12 11 11 10 10 10 9 10 10 11 11 10
26 28 29 29 29 29 29 29 29 29 28 28 28 28 25 24 24 23 23 21 21 21 20 20 20 19 19 18 17 17 16 16 15 14 14 13 12 12 11 12 12 13 13 12
26 27 28 29 30 31 31 30 30 30 29 29 29 28 26 25 24 24 23 23 23 23 22 22 21 21 22 21 20 20 19 19 18 18 16 16 15 14 14 14 15 14 13 13
26 26 27 28 30 30 32 32 32 32 31 30 29 28 27 27 26 25 25 24 24 23 23 23 22 22 22 22 22 22 22 21 20 20 20 19 18 17 16 16 16 16 16 15
26 26 26 28 29 30 32 32 32 32 33 33 31 30 29 29 27 27 26 25 25 25 25 24 23 23 23 24 24 25 24 23 23 23 22 21 21 20 19 18 18 17 17 17
26 27 27 26 27 29 31 31 32 33 33 33 32 30 29 30 29 27 27 26 26 26 27 26 26 25 25 25 25 26 26 26 26 24 23 22 23 22 20 21 20 19 19 19
28 29 28 26 25 27 29 30 31 32 32 32 32 31 31 31 30 28 28 28 28 28 28 28 28 28 27 27 27 27 27 28 28 26 24 24 23 23 22 22 22 23 22 21
30 30 30 30 30 29 30 30 31 32 33 34 33 32 32 32 32 31 29 29 29 30 30 30 30 30 29 29 29 29 30 30 29 28 27 26 26 26 25 25 24 24 24 23
31 32 32 32 31 31 31 31 31 32 33 34 33 33 33 32 31 31 30 30 30 31 32 31 31 31 31 31 31 31 32 33 32 30 29 29 29 29 28 27 26 26 27 26
32 32 32 32 32 33 32 30 31 31 32 32 33 33 32 32 30 30 30 30 30 30 31 32 33 32 32 32 33 34 34 34 33 33 32 32 32 31 29 29 28 28 28 29
31 31 32 32 32 33 31 30 30 32 33 33 34 34 33 33 32 31 31 31 32 32 31 32 33 33 33 34 34 35 34 34 33 34 34 33 32 30 31 31 29 29 29 29
32 32 32 32 31 32 32 32 32 31 33 33 33 33 34 34 33 33 32 32 33 33 33 33 32 33 34 36 36 35 36 35 35 35 34 34 34 33 32 31 31 31 31 31
32 32 32 32 31 30 30 32 31 31 33 33 33 33 33 33 33 34 33 33 34 34 34 34 34 34 35 35 35 35 36 37 37 36 35 35 35 34 33 32 32 33 33 32
31 31 31 31 31 30 31 30 29 30 31 32 32 32 32 33 33 34 34 34 34 34 34 34 34 35 35 36 36 36 37 37 37 37 37 36 36 35 34 34 34 34 34 33
30 30 30 30 30 30 30 29 30 31 30 30 30 30 31 31 32 33 33 32 33 34 34 34 35 35 36 35 36 37 37 37 38 39 38 38 37 36 36 36 35 35 35 34
30 30 30 30 30 30 30 29 29 30 30 30 30 30 30 30 30 31 31 31 31 31 31 33 34 35 36 35 35 36 37 37 38 38 37 38 38 37 37 36 36 36 36 36
30 30 30 30 30 29 29 29 29 29 29 29 29 30 30 30 30 30 30 30 30 30 31 31 31 32 33 34 35 36 36 37 37 38 38 38 39 38 38 37 37 37 37 37
30 30 30 30 30 30 30 30 30 29 28 28 28 29 29 29 30 30 30 30 31 31 30 30 30 31 32 32 33 34 36 38 39 39 39 39 38 38 38 38 38 38 38 39
30 30 30 29 29 30 29 29 29 29 28 27 27 28 28 29 29 29 30 30 30 30 30 30 31 32 33 33 34 35 36 36 37 38 37 37 37 38 39 40 40 40 40 40
Wind_Direction
233 233 234 233 231 231 236 237 242 247 252 250 251 256 264 271 276 283 301 324 340 348 355 3 8 14 21 26 28 33 41 44 43 45 48 53 55 54 55 58 62 58 53 50
235 235 235 237 235 235 238 240 244 248 252 254 257 258 262 266 268 273 277 279 294 312 324 329 335 343 356 4 6 7 17 21 23 24 28 32 33 36 38 41 41 37 33 26
236 237 236 238 238 239 241 244 244 249 254 258 258 260 261 260 263 266 269 272 276 288 301 309 308 309 319 332 342 344 346 351 360 2 359 6 17 14 14 21 18 19 16 1
237 237 237 238 239 240 244 246 248 251 254 256 257 254 256 259 260 262 264 266 268 277 287 296 298 296 298 307 317 321 318 324 331 344 349 351 351 354 354 351 352 354 356 351
240 238 238 238 240 242 244 247 250 252 252 252 257 255 255 258 259 262 262 262 263 269 275 282 292 291 290 295 300 302 302 308 317 328 335 341 337 331 332 328 320 318 319 321
241 241 241 240 241 243 246 248 252 254 254 254 255 255 255 257 259 258 259 262 262 265 269 276 281 283 284 287 288 287 293 300 304 306 312 318 322 319 313 311 304 302 299 297
243 243 243 241 242 244 246 248 252 255 256 258 258 256 253 255 257 256 256 259 260 263 266 270 271 275 279 283 283 286 289 292 294 290 292 297 301 300 299 296 297 298 294 289
247 247 246 244 243 245 247 246 247 250 254 259 261 258 256 256 256 257 256 256 257 259 263 266 266 268 271 276 277 279 280 283 287 282 281 283 287 287 285 285 288 291 289 285
247 249 249 248 247 246 247 247 247 250 252 254 255 259 260 256 256 258 258 258 257 257 259 263 265 266 265 268 271 273 276 277 279 278 277 278 279 280 280 283 285 285 285 285
248 251 252 251 250 249 248 248 247 246 249 253 257 260 258 257 259 259 259 257 257 257 257 260 263 263 263 263 266 268 270 271 273 272 273 275 275 277 276 280 283 285 282 279
250 253 254 253 250 250 250 249 249 249 248 251 256 256 258 260 260 259 258 257 258 258 257 256 258 261 260 259 260 263 264 266 268 270 269 273 275 276 274 278 284 285 284 281
250 252 254 255 254 251 251 250 248 249 251 252 253 255 258 261 261 259 257 257 256 256 255 255 256 258 257 256 258 261 263 265 268 269 271 274 275 276 276 278 282 283 284 283
251 252 254 257 258 253 250 249 249 250 253 254 255 258 260 263 262 260 258 255 253 254 256 255 254 256 257 258 260 262 264 266 269 270 271 274 273 273 276 275 279 281 279 281
252 252 251 251 252 253 252 250 249 250 251 254 255 256 257 261 261 259 257 255 253 252 254 253 252 253 256 259 260 261 264 265 268 268 268 272 272 273 275 274 278 278 276 277
253 253 253 253 253 254 254 253 253 252 252 253 256 257 256 259 259 257 256 257 255 254 253 253 252 252 252 256 259 259 262 263 265 265 266 269 271 272 273 274 278 276 275 275
254 254 256 255 254 254 254 253 253 254 254 253 255 257 256 256 256 255 255 256 257 256 255 253 250 250 252 255 258 260 261 262 262 262 263 265 269 270 270 272 276 276 274 275
254 255 257 256 255 255 254 252 252 253 254 253 253 254 256 256 256 256 256 256 257 257 257 254 250 250 253 255 257 259 259 259 259 261 262 265 268 269 270 271 271 272 273 274
255 255 257 256 255 255 255 254 254 253 254 254 255 256 256 257 257 257 257 257 257 257 258 255 254 252 253 256 258 256 257 258 259 261 262 264 267 269 269 268 268 270 272 272
255 256 256 256 256 257 257 255 254 254 255 255 256 256 256 257 257 256 256 257 256 256 257 258 256 254 255 256 256 256 255 255 259 262 264 266 267 269 271 270 269 271 272 272
255 255 256 256 255 256 259 258 257 257 257 255 256 258 258 257 258 258 257 257 257 257 257 259 260 259 257 257 257 258 258 257 259 262 264 266 268 269 269 270 271 272 273 272
254 254 255 255 256 257 258 259 258 259 260 259 258 258 259 259 258 260 261 261 262 260 259 258 258 258 257 256 256 256 258 259 258 260 263 267 269 270 269 270 270 271 272 271
254 254 254 253 254 255 258 259 258 260 261 261 260 259 258 259 260 260 260 261 262 261 258 258 258 257 256 256 255 256 258 258 258 260 263 267 268 269 271 270 269 270 270 271
252 252 253 252 253 255 257 259 259 259 260 260 259 257 257 258 260 260 261 262 261 262 261 259 257 256 257 257 257 257 257 259 260 261 263 266 267 270 270 271 272 271 272 272
253 251 250 251 253 255 257 259 258 259 258 258 258 258 257 259 260 262 261 261 260 261 260 258 256 255 256 255 257 257 259 260 261 262 264 266 266 267 269 271 272 273 272 273
252 251 250 251 253 255 257 258 257 257 259 260 260 260 259 259 260 260 261 260 259 258 257 256 255 255 256 257 258 259 260 260 261 262 264 265 266 267 269 271 272 273 273 273
250 250 251 253 254 256 257 257 258 258 259 260 259 259 259 260 259 260 260 260 260 258 256 256 256 257 257 258 259 260 261 262 265 266 267 268 268 269 270 271 271 271 272 273
Height
5897 5901 5903 5905 5907 5909 5911 5912 5914 5914 5913 5914 5915 5915 5916 5915 5915 5915 5915 5914 5913 5912 5911 5910 5909 5908 5907 5905 5904 5903 5902 5900 5899 5898 5897 5896 5895 5895 5894 5893 5892 5892 5891 5891
5894 5896 5899 5901 5902 5905 5906 5909 5911 5911 5911 5912 5913 5913 5914 5914 5914 5914 5914 5913 5913 5912 5911 5910 5909 5908 5907 5906 5905 5903 5902 5901 5900 5899 5898 5897 5896 5895 5894 5893 5892 5892 5891 5891
5890 5894 5895 5896 5898 5901 5903 5905 5907 5907 5908 5908 5910 5911 5912 5912 5912 5912 5912 5912 5912 5911 5911 5910 5909 5908 5907 5906 5905 5904 5903 5901 5900 5899 5898 5897 5896 5895 5894 5893 5893 5892 5891 5891
5885 5888 5890 5891 5894 5896 5899 5900 5901 5902 5904 5906 5907 5909 5909 5909 5909 5909 5909 5909 5909 5909 5909 5908 5907 5907 5906 5905 5904 5903 5902 5901 5900 5899 5897 5896 5896 5895 5894 5893 5892 5892 5891 5891
5880 5882 5884 5887 5889 5891 5894 5895 5896 5898 5899 5901 5903 5904 5907 5906 5906 5907 5907 5907 5907 5907 5907 5906 5906 5905 5904 5904 5903 5902 5901 5900 5899 5898 5897 5896 5895 5894 5893 5892 5892 5891 5891 5890
5875 5877 5879 5882 5884 5886 5888 5890 5891 5893 5895 5896 5898 5900 5902 5902 5903 5904 5904 5904 5904 5904 5904 5904 5903 5903 5902 5902 5901 5901 5900 5899 5898 5897 5896 5895 5894 5893 5892 5891 5891 5890 5889 5889
5869 5870 5872 5875 5878 5880 5882 5885 5887 5888 5890 5891 5893 5893 5896 5897 5898 5899 5900 5900 5900 5900 5900 5901 5900 5900 5900 5899 5898 5898 5897 5897 5896 5895 5895 5893 5892 5891 5890 5889 5889 5888 5887 5887
5864 5865 5867 5869 5872 5874 5876 5880 5882 5884 5886 5888 5886 5886 5890 5892 5892 5893 5895 5896 5896 5896 5896 5897 5897 5896 5896 5896 5896 5895 5895 5894 5893 5892 5892 5891 5890 5889 5888 5887 5887 5886 5885 5884
5858 5860 5861 5862 5865 5868 5869 5872 5875 5877 5878 5880 5881 5881 5883 5885 5886 5888 5889 5890 5891 5891 5891 5892 5892 5892 5892 5892 5892 5892 5892 5891 5890 5889 5889 5888 5887 5887 5886 5885 5884 5882 5881 5881
5850 5852 5854 5855 5858 5860 5862 5865 5867 5869 5870 5872 5874 5875 5877 5878 5879 5881 5882 5884 5884 5885 5886 5887 5887 5887 5887 5888 5888 5888 5888 5887 5886 5885 5885 5885 5884 5883 5882 5881 5880 5879 5878 5877
5843 5845 5847 5848 5850 5852 5854 5856 5858 5860 5863 5865 5867 5871 5870 5871 5872 5874 5876 5877 5878 5879 5879 5880 5881 5881 5882 5882 5882 5882 5882 5882 5881 5881 5880 5880 5880 5879 5878 5877 5876 5875 5875 5874
5835 5838 5840 5841 5842 5844 5845 5847 5850 5852 5853 5855 5857 5863 5863 5863 5864 5866 5868 5869 5871 5871 5872 5873 5874 5875 5875 5875 5876 5876 5876 5877 5876 5876 5875 5875 5874 5874 5873 5872 5872 5871 5870 5870
5828 5830 5832 5834 5836 5836 5836 5838 5841 5843 5845 5846 5849 5855 5854 5855 5856 5858 5859 5861 5862 5864 5864 5865 5866 5867 5868 5869 5869 5870 5870 5870 5870 5870 5869 5868 5868 5867 5867 5866 5866 5865 5865 5864
5820 5822 5825 5828 5828 5828 5828 5830 5832 5834 5836 5838 5840 5844 5845 5846 5847 5849 5851 5852 5854 5855 5857 5858 5858 5860 5861 5862 5862 5863 5863 5863 5863 5863 5863 5862 5862 5861 5861 5861 5861 5860 5859 5858
5811 5813 5815 5817 5818 5819 5820 5822 5823 5825 5827 5829 5831 5833 5835 5837 5838 5840 5842 5843 5845 5846 5848 5849 5850 5851 5852 5853 5854 5855 5855 5855 5856 5856 5856 5856 5856 5855 5855 5855 5854 5853 5853 5852
5803 5805 5806 5808 5809 5810 5811 5813 5815 5816 5818 5820 5822 5824 5826 5827 5829 5831 5832 5834 5835 5837 5838 5839 5841 5842 5843 5844 5845 5846 5846 5847 5848 5848 5849 5849 5849 5848 5848 5847 5847 5846 5846 5845
5795 5797 5798 5800 5801 5801 5803 5805 5807 5808 5809 5812 5813 5816 5817 5818 5820 5822 5824 5825 5826 5827 5828 5829 5830 5831 5833 5834 5836 5836 5837 5838 5839 5839 5840 5840 5841 5840 5840 5839 5839 5838 5838 5837
5787 5788 5789 5791 5792 5793 5797 5797 5798 5800 5801 5803 5805 5806 5808 5809 5811 5813 5814 5816 5817 5817 5818 5819 5820 5821 5823 5825 5826 5827 5828 5829 5830 5831 5831 5832 5832 5831 5831 5830 5830 5830 5829 5829
5777 5779 5781 5782 5783 5785 5787 5788 5789 5791 5793 5794 5795 5796 5798 5800 5802 5803 5805 5806 5807 5807 5808 5809 5810 5811 5813 5815 5816 5816 5818 5819 5821 5821 5822 5822 5822 5822 5822 5821 5821 5820 5820 5819
5769 5770 5772 5773 5775 5777 5779 5779 5780 5783 5784 5785 5786 5788 5789 5791 5792 5794 5794 5795 5796 5797 5798 5799 5800 5801 5802 5803 5805 5806 5808 5809 5811 5812 5812 5813 5813 5813 5812 5812 5811 5811 5810 5810
5759 5761 5763 5764 5765 5768 5769 5770 5772 5775 5775 5776 5777 5778 5780 5781 5782 5783 5784 5784 5785 5785 5786 5787 5789 5789 5791 5792 5794 5795 5797 5799 5800 5801 5802 5802 5803 5802 5802 5801 5800 5800 5800 5799
5750 5752 5754 5755 5758 5761 5759 5761 5764 5764 5765 5766 5767 5768 5770 5771 5772 5772 5773 5773 5774 5774 5775 5776 5778 5779 5780 5781 5783 5785 5786 5788 5790 5790 5791 5792 5792 5791 5791 5791 5790 5789 5789 5789
5741 5744 5745 5747 5750 5750 5751 5752 5754 5755 5756 5757 5758 5759 5760 5761 5762 5762 5762 5763 5764 5764 5765 5766 5768 5769 5771 5772 5773 5775 5776 5778 5779 5780 5780 5781 5781 5781 5781 5780 5780 5779 5779 5779
5732 5734 5736 5738 5740 5741 5742 5743 5745 5746 5747 5748 5749 5750 5751 5752 5753 5753 5753 5754 5754 5755 5755 5757 5758 5760 5761 5762 5763 5765 5766 5767 5768 5770 5770 5770 5770 5770 5769 5769 5769 5768 5768 5767
5723 5724 5726 5728 5731 5732 5733 5734 5736 5737 5738 5739 5740 5741 5741 5742 5743 5743 5744 5744 5745 5746 5746 5748 5749 5751 5751 5753 5754 5755 5756 5757 5758 5758 5758 5759 5758 5758 5758 5757 5757 5756 5756 5755
5713 5715 5718 5720 5722 5723 5725 5726 5727 5728 5729 5730 5730 5731 5732 5732 5733 5733 5734 5734 5735 5736 5738 5739 5740 5741 5742 5744 5744 5745 5746 5746 5746 5747 5747 5747 5746 5746 5746 5745 5745 5744 5744 5743